Location: Flensburg
(54.6357°N, 9.5142°E)
Time: 09:34:36
(UTC+02:00)

ISS - Visible Passes

Search period start: 23 July 2018 00:00
Search period end: 02 August 2018 00:00
Orbit: 402 x 408 km, 51.6° (Epoch: 23 July)

Date Brightness Start Highest point End Pass type
(mag) Time Alt. Az. Time Alt. Az. Time Alt. Az.
23 Jul -3.6 01:15:33 10° W 01:18:44 47° S 01:20:53 18° ESE visible
23 Jul -2.0 02:52:08 10° W 02:53:23 17° WSW 02:53:23 17° WSW visible
23 Jul -3.2 22:47:29 10° SW 22:50:30 34° SSE 22:53:32 10° E visible
24 Jul -3.7 00:23:29 10° WSW 00:26:42 50° S 00:29:11 15° ESE visible
24 Jul -2.5 01:59:55 10° W 02:01:47 24° WSW 02:01:47 24° WSW visible
24 Jul -3.6 23:31:27 10° WSW 23:34:38 49° S 23:37:50 10° E visible
25 Jul -3.3 01:07:45 10° W 01:10:49 37° SSW 01:10:49 37° SSW visible
25 Jul -3.5 22:39:25 10° WSW 22:42:34 44° S 22:45:45 10° E visible
26 Jul -3.5 00:15:38 10° W 00:18:48 45° S 00:20:03 29° SE visible
26 Jul -1.4 01:52:19 10° WSW 01:52:41 12° WSW 01:52:41 12° WSW visible
26 Jul -3.6 23:23:32 10° W 23:26:44 49° S 23:29:23 14° ESE visible
27 Jul -2.4 01:00:01 10° W 01:02:01 24° SW 01:02:01 24° SW visible
27 Jul -3.6 22:31:26 10° WSW 22:34:38 50° S 22:37:50 10° ESE visible
28 Jul -3.1 00:07:47 10° W 00:10:50 35° SSW 00:11:24 32° S visible
28 Jul -3.4 23:15:37 10° W 23:18:46 42° SSW 23:20:49 18° SE visible
29 Jul -1.6 00:52:25 10° WSW 00:53:26 15° WSW 00:53:26 15° WSW visible
29 Jul -3.5 22:23:28 10° W 22:26:39 48° S 22:29:50 10° ESE visible
30 Jul -2.5 00:00:00 10° W 00:02:44 24° SSW 00:02:53 24° SSW visible
30 Jul -2.9 23:07:43 10° W 23:10:41 32° SSW 23:12:21 20° SSE visible
31 Jul -3.1 22:15:29 10° W 22:18:35 39° SSW 22:21:42 10° ESE visible
31 Jul -1.8 23:52:26 10° WSW 23:54:28 16° SW 23:54:28 16° SW visible
01 Aug -2.2 22:59:53 10° W 23:02:30 22° SSW 23:03:59 16° S visible
